Miscellaneous Local Product
Issued by NWS North Platte, NE

Home | Current Version | Previous Version | Graphics & Text | Print | Product List | Glossary On
Versions: 1 2 3 4 5 6 7 8 9 10 11 12 13 14 15 16 17 18 19 20 21 22 23 24 25 26 27 28 29 30 31 32 33 34 35 36 37 38 39 40 41 42 43 44 45 46 47 48 49 50
448
AXUS43 KLBF 050810
MISLBF


WESTERN AND NORTH CENTRAL NEBRASKA HOURLY WEATHER ROUNDUP
NATIONAL WEATHER SERVICE NORTH PLATTE NE
300 AM CDT THU MAY 05 2016

NOTE: "FAIR" INDICATES FEW OR NO CLOUDS BELOW 12,000 FEET WITH NO
SIGNIFICANT WEATHER AND/OR OBSTRUCTIONS TO VISIBILITY.

NOTE: STATIONS NOT REPORTING VARIABLES SUCH AS SKY/WEATHER OR
PRESSURE ARE PROVIDED BY RAWS AND APRS NETWORKS AND ARE NOT UNDER
NATIONAL WEATHER SERVICE QUALITY CONTROL.

...OBSERVATIONS IN AND NEAR THE EASTERN PANHANDLE OF NEBRASKA...

CITY           SKY/WX    TMP DP  RH WIND       PRES   REMARKS
PINE RIDGE     CLEAR     53  40  61 CALM      30.03F
CHADRON        CLEAR     50  41  71 NE3       30.02F
ALLIANCE       CLEAR     45  41  86 E5        30.07F
SIDNEY         CLEAR     48  40  73 SW10      30.12F
CRESCENT LAKE    N/A     50  42  74 S5          N/A
BIG SPRINGS      N/A     55  42  61 S13         N/A
$$

...OBSERVATIONS IN NORTHERN NEBRASKA AND FAR SOUTHERN SOUTH DAKOTA...

CITY           SKY/WX    TMP DP  RH WIND       PRES   REMARKS
WINNER         FAIR      54  38  54 SW9       30.04S
VALENTINE      CLEAR     50  37  61 SW5       30.07S
THEDFORD       CLEAR     46  38  74 CALM      30.10S
AINSWORTH      CLEAR     45  37  75 S7        30.07F
O`NEILL        CLEAR     45  43  93 SW5       30.06S
ORD            CLEAR     40  37  89 CALM      30.06S
BROKEN BOW     CLEAR     39  36  89 CALM      30.08S
VALENTINE NWR    N/A     49  42  77 CALM        N/A
BUTTE            N/A     52  38  58 SW3         N/A
HALSEY           N/A     51  34  53 S3          N/A
CHAMBERS         N/A     44  40  86 CALM        N/A
EWING            N/A     45  38  77 CALM        N/A
$$

...OBSERVATIONS IN SOUTHWEST NEBRASKA AND FAR NORTHEAST COLORADO...

CITY           SKY/WX    TMP DP  RH WIND       PRES   REMARKS
HOLYOKE        FAIR      46  41  81 SW6       30.11F
IMPERIAL       CLEAR     50  41  71 S5        30.10F
OGALLALA       CLEAR     52  39  61 CALM      30.09F
NORTH PLATTE   CLEAR     43  38  82 E3        30.09S
MCCOOK         CLEAR     51  41  68 SW3       30.09S
LEXINGTON      CLEAR     43  40  88 CALM      30.09F
PAXTON           N/A     50  43  77 S8          N/A
STAPLETON        N/A     44  37  75 CALM        N/A
GOTHENBURG       N/A     49  37  63 CALM        N/A
CALLAWAY         N/A     47  38  71 S3          N/A
$$

...OBSERVATIONS IN CENTRAL LINCOLN COUNTY AREA...

CITY           SKY/WX    TMP DP  RH WIND       PRES   REMARKS
N.P. AIRPORT   CLEAR     43  38  82 E3        30.09S
N.P. DOWNTOWN    N/A     47  43  85 CALM        N/A
N.P. SOUTHEAST   N/A     48  41  78 CALM        N/A
N.P. HILLCREST   N/A     54  39  57 SE3         N/A
$$

...SOME OBSERVATIONS FROM AROUND THE REGION...

CITY           SKY/WX    TMP DP  RH WIND       PRES   REMARKS
DENVER         PTCLDY    53  33  46 S14       30.13F
LARAMIE        CLOUDY    40  32  73 SW8       30.20F WCI  34
CHEYENNE       CLOUDY    51  34  52 SW8       30.16F
SCOTTSBLUFF    CLEAR     52  41  66 E13       30.08F
RAPID CITY     CLEAR     48  42  80 SE8       30.00F
BISMARCK       CLEAR     61  45  55 SW7       29.93F
PIERRE         PTCLDY    49  39  68 S3        30.00S
SIOUX FALLS    CLEAR     43  36  76 CALM      30.03R
OMAHA          CLEAR     46  42  86 NW5       30.02S
GRAND ISLAND   PTCLDY    44  36  73 SW5       30.07S
KANSAS CITY    PTCLDY    50  40  68 NW8       30.00F
WICHITA        CLEAR     50  41  71 N6        30.04F
OKLAHOMA CITY  CLEAR     54  43  66 NW6       30.04F
DALLAS         CLEAR     63  51  65 N9        30.01R
AMARILLO       CLEAR     57  37  47 S9        30.13F
DODGE CITY     CLEAR     49  43  80 SW8       30.11S
HAYS           CLEAR     45  37  76 NW3       30.08F
GOODLAND       CLEAR     56  42  59 S10       30.11F
$$




USA.gov is the U.S. government's official web portal to all federal, state and local government web resources and services.